TimeCDT,TemperatureF,Dew PointF,Humidity,Sea Level PressureIn,VisibilityMPH,Wind Direction,Wind SpeedMPH,Gust SpeedMPH,PrecipitationIn,Events,Conditions,WindDirDegrees,DateUTC
12:53 AM,46.0,37.0,71,30.23,10.0,NNE,5.8,-,N/A,,Clear,30,2013-10-24 05:53:00
1:53 AM,44.1,36.0,73,30.25,10.0,North,3.5,-,N/A,,Clear,10,2013-10-24 06:53:00
2:53 AM,39.9,35.1,83,30.27,10.0,NW,6.9,-,N/A,,Clear,320,2013-10-24 07:53:00
3:53 AM,39.0,34.0,82,30.28,10.0,NNW,3.5,-,N/A,,Clear,330,2013-10-24 08:53:00
4:53 AM,37.9,34.0,86,30.30,10.0,North,5.8,-,N/A,,Partly Cloudy,350,2013-10-24 09:53:00
5:53 AM,41.0,36.0,82,30.30,10.0,North,8.1,-,N/A,,Overcast,10,2013-10-24 10:53:00
6:53 AM,37.9,34.0,86,30.34,10.0,North,5.8,-,N/A,,Clear,360,2013-10-24 11:53:00
7:53 AM,39.0,34.0,82,30.36,10.0,Calm,Calm,-,N/A,,Scattered Clouds,0,2013-10-24 12:53:00
8:53 AM,41.0,36.0,82,30.40,10.0,NNW,3.5,-,N/A,,Partly Cloudy,330,2013-10-24 13:53:00
9:53 AM,43.0,34.0,71,30.43,10.0,NE,8.1,-,N/A,,Mostly Cloudy,40,2013-10-24 14:53:00
10:53 AM,45.0,33.1,63,30.45,10.0,NE,9.2,-,N/A,,Overcast,50,2013-10-24 15:53:00
11:53 AM,46.9,33.1,59,30.44,10.0,NNE,5.8,-,N/A,,Mostly Cloudy,20,2013-10-24 16:53:00
12:53 PM,50.0,33.1,52,30.43,10.0,NNE,8.1,-,N/A,,Scattered Clouds,30,2013-10-24 17:53:00
1:53 PM,52.0,30.0,43,30.41,10.0,NE,5.8,-,N/A,,Partly Cloudy,50,2013-10-24 18:53:00
2:53 PM,53.1,28.0,38,30.39,10.0,North,10.4,-,N/A,,Clear,10,2013-10-24 19:53:00
3:53 PM,52.0,24.1,34,30.39,10.0,Variable,4.6,-,N/A,,Clear,0,2013-10-24 20:53:00
4:53 PM,52.0,24.1,34,30.39,10.0,NE,6.9,-,N/A,,Clear,40,2013-10-24 21:53:00
5:53 PM,50.0,23.0,35,30.38,10.0,ENE,5.8,-,N/A,,Clear,60,2013-10-24 22:53:00
6:53 PM,48.0,23.0,37,30.39,10.0,NE,3.5,-,N/A,,Clear,50,2013-10-24 23:53:00
7:53 PM,46.9,24.1,41,30.41,10.0,Calm,Calm,-,N/A,,Clear,0,2013-10-25 00:53:00
8:53 PM,43.0,26.1,51,30.42,10.0,Calm,Calm,-,N/A,,Clear,0,2013-10-25 01:53:00
9:53 PM,39.0,26.1,60,30.44,10.0,Calm,Calm,-,N/A,,Clear,0,2013-10-25 02:53:00
10:53 PM,37.9,26.1,62,30.45,10.0,SSW,3.5,-,N/A,,Clear,210,2013-10-25 03:53:00
11:53 PM,35.1,26.1,70,30.46,10.0,Calm,Calm,-,N/A,,Clear,0,2013-10-25 04:53:00